Fond du Lac, WI

1:54 PM CDT on July 24, 2017 (GMT -0500)
Fond du Lac County

Weather History for KFLD - October, 2013

Change the Weather History Date:

Wednesday, October 9, 2013

  Actual Average Record
Temperature  
Mean Temperature 62 °F -  
Max Temperature 72 °F 59 °F 81 °F (2011)
Min Temperature 48 °F 41 °F 28 °F (2000)
Degree Days  
Heating Degree Days 4    
Growing Degree Days 12 (Base 50)    
Moisture  
Dew Point 46 °F    
Average Humidity 63    
Maximum Humidity 83    
Minimum Humidity 37    
Precipitation  
Precipitation 0.00 in - - ()
Sea Level Pressure  
Sea Level Pressure 30.17 in    
Wind  
Wind Speed 8 mph (South)    
Max Wind Speed 13 mph    
Max Gust Speed -    
Visibility 10 miles    
Events      
Averages and records for this station are not official NWS values.
T = Trace of Precipitation, MM = Missing Value Source: NWS Daily Summary

Daily Weather History Graph

Daily Weather History Graph

Search for Another Location

Airport or City:

Trip Planner

Search our weather history database for the weather conditions in past years. The results will help you decide how hot, cold, wet, or windy it might be!

Date:

Astronomy

Oct. 09, 2013 Rise Set
Actual Time 7:01 AM CDT 6:20 PM CDT
Civil Twilight 6:32 AM CDT 6:48 PM CDT
Nautical Twilight 5:59 AM CDT 7:22 PM CDT
Astronomical Twilight 5:25 AM CDT 7:55 PM CDT
Moon 12:04 PM CDT (10/9) 9:46 PM CDT (10/9)
Length of Visible Light 12h 16m
Length of Day
11h 18m
Waxing Crescent, 25% of the Moon is Illuminated
Oct 9
Waxing Crescent
Oct 11
First Quarter
Oct 18
Full
Oct 26
Last Quarter
Nov 3
New

Hourly Weather History & Observations

Time (CDT) Temp. Dew Point Humidity Pressure Visibility Wind Dir Wind Speed Gust Speed Precip Events Conditions
12:53 AM 55.9 °F 46.9 °F 72% 30.12 in 10.0 mi South 6.9 mph - N/A   Clear
1:53 AM 54.0 °F 46.9 °F 77% 30.14 in 10.0 mi South 6.9 mph - N/A   Clear
2:53 AM 51.1 °F 46.0 °F 83% 30.14 in 10.0 mi South 5.8 mph - N/A   Clear
3:53 AM 55.9 °F 45.0 °F 67% 30.15 in 10.0 mi South 10.4 mph - N/A   Clear
4:53 AM 52.0 °F 45.0 °F 77% 30.17 in 10.0 mi South 5.8 mph - N/A   Clear
5:53 AM 53.1 °F 45.0 °F 74% 30.18 in 10.0 mi South 9.2 mph - N/A   Clear
6:53 AM 52.0 °F 45.0 °F 77% 30.19 in 10.0 mi South 6.9 mph - N/A   Clear
7:53 AM 54.0 °F 46.0 °F 75% 30.21 in 10.0 mi South 6.9 mph - N/A   Clear
8:53 AM 59.0 °F 48.9 °F 69% 30.22 in 10.0 mi SSE 6.9 mph - N/A   Clear
9:53 AM 64.9 °F 48.0 °F 54% 30.21 in 10.0 mi SSW 10.4 mph - N/A   Clear
10:53 AM 66.9 °F 48.0 °F 51% 30.22 in 10.0 mi SSW 12.7 mph - N/A   Clear
11:53 AM 69.1 °F 48.9 °F 49% 30.21 in 10.0 mi SSW 11.5 mph - N/A   Clear
12:53 PM 70.0 °F 48.9 °F 47% 30.19 in 10.0 mi SSW 10.4 mph - N/A   Clear
1:53 PM 71.1 °F 46.9 °F 42% 30.18 in 10.0 mi South 11.5 mph - N/A   Clear
2:53 PM 72.0 °F 46.0 °F 40% 30.17 in 10.0 mi South 12.7 mph - N/A   Clear
3:53 PM 72.0 °F 44.1 °F 37% 30.15 in 10.0 mi South 8.1 mph - N/A   Clear
4:53 PM 70.0 °F 43.0 °F 38% 30.15 in 10.0 mi South 8.1 mph - N/A   Clear
5:53 PM 66.0 °F 46.0 °F 48% 30.15 in 10.0 mi SE 8.1 mph - N/A   Clear
6:53 PM 59.0 °F 42.1 °F 53% 30.17 in 10.0 mi SE 9.2 mph - N/A   Clear
7:53 PM 55.9 °F 44.1 °F 64% 30.17 in 10.0 mi SSE 9.2 mph - N/A   Clear
8:53 PM 54.0 °F 46.0 °F 75% 30.16 in 10.0 mi SSE 9.2 mph - N/A   Clear
9:53 PM 51.1 °F 44.1 °F 77% 30.17 in 10.0 mi South 5.8 mph - N/A   Clear
10:53 PM 51.1 °F 44.1 °F 77% 30.17 in 10.0 mi South 5.8 mph - N/A   Clear
11:53 PM 48.0 °F 43.0 °F 83% 30.17 in 10.0 mi South 4.6 mph - N/A   Clear